Lapse_Rate
7.3 7.2 6.9 6.8 6.4 6.1 5.9 5.9 6.0 5.9 5.8 5.9 5.8 5.9 5.9 6.0 5.7 5.7 5.8 5.9 5.7 5.7 5.9 6.0 6.1 6.2 6.2 6.3 6.4 6.1 5.8 6.2 6.1 5.9 5.8 5.8 5.9 5.8 5.4 6.0 5.8 5.2 5.5
7.0 7.0 6.9 6.8 6.2 5.9 5.6 5.9 6.0 5.8 5.7 5.7 5.7 6.1 6.2 5.8 5.8 5.9 5.7 5.9 5.8 5.7 5.8 6.0 6.1 6.2 6.2 6.2 6.5 6.2 5.8 5.9 5.9 6.0 6.3 6.2 6.0 5.5 5.6 5.5 5.3 4.8 5.1
6.8 6.6 6.7 6.4 6.2 6.0 5.9 5.7 5.8 5.8 5.8 5.8 6.1 6.2 6.0 5.6 5.6 5.8 5.5 5.6 5.8 5.7 5.8 6.0 6.1 6.2 6.3 6.1 6.3 6.1 5.9 5.7 5.9 6.0 5.7 5.7 5.8 5.6 5.4 4.6 5.1 4.4 4.4
5.6 5.7 6.0 6.3 6.2 5.9 5.9 5.7 5.8 5.8 5.9 5.9 6.0 6.1 6.0 5.8 5.8 5.6 5.3 5.5 5.5 5.7 5.6 5.8 5.8 5.6 5.9 5.9 5.9 5.6 5.7 5.6 5.6 5.5 5.3 5.2 5.2 4.9 4.6 4.8 4.5 4.5 4.9
5.5 5.5 5.6 6.0 6.1 6.0 5.8 6.0 6.0 5.9 6.0 6.0 6.0 6.1 6.0 6.1 5.9 5.5 5.6 5.5 5.4 5.5 5.6 5.7 5.6 5.9 5.8 5.5 5.3 5.1 5.2 5.6 5.5 5.1 4.9 4.7 4.8 4.7 4.7 4.7 4.7 5.0 5.0
5.0 5.7 5.6 5.8 6.2 6.2 6.1 6.1 6.1 6.1 6.0 6.2 6.1 6.0 6.1 6.2 6.0 5.7 5.3 5.3 5.4 5.5 5.6 5.5 5.5 5.5 5.3 4.9 5.1 4.6 5.0 5.0 4.9 4.9 4.8 5.0 4.9 4.8 4.8 5.0 5.1 5.2 5.3
5.4 5.9 6.0 6.2 6.4 6.3 6.0 6.0 6.0 6.1 6.0 6.1 6.3 6.1 6.1 6.2 5.9 6.0 5.6 5.3 5.5 5.4 5.3 5.3 5.4 5.3 5.1 5.2 5.4 4.9 4.6 4.4 4.8 5.0 5.2 4.9 5.0 4.8 5.1 5.1 5.1 5.3 5.4
5.9 6.1 6.2 6.4 6.3 6.0 5.8 5.7 5.9 6.1 6.2 6.1 6.1 6.0 5.9 6.1 6.1 5.9 5.6 5.3 5.4 5.7 5.8 5.4 5.3 5.1 5.3 5.2 5.1 4.8 4.7 4.5 4.5 4.8 4.8 4.7 4.7 5.0 5.1 5.2 5.3 5.5 5.5
6.1 6.0 6.4 6.5 6.2 6.1 5.8 5.6 5.7 5.8 5.9 5.9 6.0 6.0 6.0 5.9 6.0 6.2 5.8 5.7 5.6 5.6 5.5 5.5 5.5 5.3 5.3 5.0 4.7 4.8 4.5 4.6 4.8 5.0 4.9 4.5 4.7 4.5 5.0 5.5 5.7 5.7 6.0
5.9 5.9 6.1 6.0 6.3 6.1 6.0 5.8 5.7 5.8 5.8 5.9 6.0 6.0 5.9 5.7 5.7 6.0 5.9 5.7 5.7 5.7 5.6 5.6 5.6 5.2 5.2 4.9 5.2 5.3 5.0 4.8 5.0 4.9 4.7 4.7 4.8 5.2 5.2 5.3 5.7 6.0 6.0
5.8 5.8 5.5 5.9 6.1 6.2 6.2 6.0 5.7 5.7 5.8 5.9 5.9 5.9 5.8 5.6 5.7 5.8 5.9 5.8 5.7 5.7 5.7 5.4 5.3 5.1 5.1 5.2 4.9 4.9 4.9 4.7 4.9 4.9 5.1 4.8 5.2 5.2 5.3 5.8 5.9 5.9 5.8
5.9 6.1 5.9 6.1 6.2 6.6 6.3 6.4 6.0 6.0 6.0 5.9 6.0 6.0 5.8 5.6 5.7 5.8 5.9 5.7 5.6 5.5 5.8 5.4 5.2 5.1 5.0 5.1 5.0 4.9 4.9 5.1 5.2 4.9 5.1 5.2 5.3 5.5 6.1 6.4 6.1 6.1 5.9
6.0 6.7 6.2 6.1 6.3 6.7 6.6 6.6 6.6 6.4 6.0 5.8 5.8 5.8 5.9 6.0 5.9 5.8 5.7 5.6 5.5 5.5 5.7 5.7 5.5 5.4 5.3 5.5 5.3 5.2 5.2 5.1 5.3 5.3 5.4 5.6 5.7 6.1 6.3 6.1 5.9 5.6 5.4
6.4 6.9 6.6 7.0 6.9 6.9 6.7 6.7 6.8 6.5 6.4 5.8 5.6 5.8 6.1 6.4 6.2 6.1 5.9 5.6 5.7 6.0 6.0 5.8 5.8 5.9 5.7 5.7 5.7 5.3 5.2 5.3 5.5 5.6 5.7 5.7 5.9 6.2 6.0 5.8 5.8 5.7 5.8
7.1 6.9 6.8 7.2 7.0 7.2 6.9 6.8 7.1 6.8 7.0 6.4 6.2 6.1 6.3 6.6 6.6 6.3 6.2 6.0 6.2 6.2 6.2 6.2 6.3 6.5 6.6 6.3 6.1 5.9 5.8 5.9 5.9 5.9 5.9 6.0 6.0 6.0 6.3 6.2 5.9 5.8 5.8
7.7 7.4 7.0 7.2 7.2 7.3 7.2 7.2 7.4 7.3 7.3 6.9 6.5 6.4 6.8 6.6 6.6 6.4 6.4 6.4 6.4 6.4 6.3 6.4 6.4 6.5 6.5 6.7 6.6 6.6 6.6 6.5 6.4 6.1 6.0 6.0 6.1 6.3 6.0 5.7 5.9 5.8 5.8
7.8 7.7 7.6 7.4 7.4 7.3 7.3 7.4 7.5 7.6 7.5 7.3 7.1 6.6 6.5 6.8 6.7 6.5 6.5 6.5 6.5 6.6 6.6 6.5 6.5 6.7 6.7 6.8 6.8 6.9 6.9 6.6 6.4 6.2 6.0 5.8 5.8 5.9 5.8 5.9 5.9 6.1 6.2
8.0 7.9 7.7 7.7 7.5 7.5 7.4 7.4 7.5 7.5 7.6 7.7 7.6 7.6 7.5 7.3 7.1 6.9 6.7 6.6 6.7 6.6 6.6 6.6 6.5 6.5 6.6 6.8 6.7 6.7 6.5 6.2 6.2 6.3 5.9 6.0 6.1 6.2 6.2 6.3 6.3 6.1 6.4
7.9 7.9 7.9 7.8 7.8 7.6 7.6 7.6 7.5 7.6 7.7 7.7 7.8 7.8 7.8 7.7 7.6 7.5 7.4 7.2 7.0 6.9 6.9 6.9 6.9 6.8 6.7 6.5 6.7 6.6 6.3 6.1 6.1 6.1 6.2 6.3 6.3 6.3 6.3 6.3 6.2 6.3 6.3
7.9 7.6 7.6 7.8 7.9 7.9 7.8 7.7 7.8 7.7 7.7 7.9 7.8 7.8 7.8 7.8 7.9 7.9 7.8 7.7 7.6 7.5 7.3 7.2 7.1 7.1 7.2 6.9 6.7 6.6 6.6 6.6 6.3 6.1 6.2 6.3 6.3 6.2 6.2 6.2 6.2 6.3 6.4
7.3 7.6 7.6 7.5 7.6 7.9 7.9 7.8 7.7 7.8 7.8 7.8 7.6 7.8 7.9 7.8 7.8 7.8 7.8 7.8 7.8 7.8 7.7 7.6 7.4 7.4 7.3 7.2 7.1 7.1 7.1 7.1 7.1 6.8 6.4 6.3 6.3 6.5 6.4 6.3 6.1 6.0 6.0
7.8 7.3 7.2 7.6 7.6 7.6 7.9 7.8 7.6 7.6 7.8 7.8 7.9 7.6 7.4 7.6 7.7 7.8 7.9 7.9 7.8 7.7 7.7 7.8 7.7 7.7 7.6 7.6 7.5 7.5 7.5 7.5 7.5 7.2 6.9 6.4 6.1 6.2 6.2 6.2 6.2 6.4 6.3
8.1 8.4 7.7 7.4 7.5 7.7 7.7 7.8 7.7 7.6 7.5 7.7 7.9 8.1 7.6 7.6 7.7 7.7 7.8 7.7 7.7 7.7 7.7 7.8 7.8 7.7 7.7 7.9 7.9 7.9 8.0 8.0 7.6 7.2 7.1 7.0 7.0 6.9 6.7 6.6 6.5 6.4 6.4
7.7 7.6 8.4 8.4 7.9 7.8 7.7 8.0 7.9 7.8 7.6 7.5 7.4 8.0 8.0 7.7 7.7 7.7 7.8 7.8 7.8 7.9 7.9 8.0 8.0 8.0 8.0 7.9 7.7 7.8 7.8 7.7 7.5 7.4 7.1 6.9 6.8 6.9 6.9 6.9 6.8 6.8 6.7
8.0 7.9 7.7 8.0 8.5 8.2 7.9 7.7 8.0 8.0 7.9 7.8 7.7 7.8 7.9 7.9 7.7 7.8 7.9 7.9 7.9 7.9 7.8 7.8 7.8 7.8 7.9 7.9 8.0 8.0 7.9 7.7 7.4 7.2 7.1 7.1 7.1 6.9 6.9 6.9 6.8 6.8 6.9
8.0 7.9 7.8 7.5 7.6 8.4 8.2 7.7 7.3 7.8 8.1 8.0 8.0 7.9 7.9 7.8 7.8 7.7 7.8 7.9 7.9 8.0 7.9 7.9 7.8 7.7 7.7 7.6 7.5 7.5 7.4 7.3 7.2 7.1 7.0 7.0 6.9 6.9 6.8 6.8 6.7 6.9 7.0
Wind_Speed
8 6 7 7 7 6 5 6 6 5 5 5 5 5 5 3 3 2 3 3 4 4 4 2 3 5 3 2 3 5 6 7 9 3 3 7 12 13 14 29 33 26 28
7 7 7 7 7 6 4 6 6 4 4 4 6 1 4 4 4 2 3 1 1 3 5 4 2 4 5 4 7 9 9 9 11 12 8 6 13 16 13 20 17 23 21
9 8 7 7 7 6 5 6 6 4 4 2 5 5 5 4 3 2 3 5 4 4 3 3 5 6 5 8 10 10 10 10 11 11 10 9 9 13 12 13 15 15 18
10 9 7 7 7 7 6 5 6 5 3 4 5 5 5 4 3 3 4 5 6 4 5 6 6 6 8 11 10 12 13 12 13 12 11 8 11 11 9 13 11 10 10
10 8 7 6 6 7 6 6 6 4 4 6 5 6 7 6 3 4 4 5 5 7 6 5 5 10 12 11 10 11 13 12 11 11 10 10 11 10 11 7 11 10 8
10 10 8 6 7 6 5 4 5 5 5 5 6 7 6 4 6 8 5 5 5 5 6 7 10 16 13 14 13 10 12 17 13 9 8 12 12 11 8 10 9 9 5
10 8 9 8 8 6 6 6 6 5 4 5 7 7 6 4 6 8 7 4 5 5 6 8 10 10 13 12 16 17 14 12 10 12 15 13 14 13 12 11 10 5 3
10 9 9 9 7 6 6 6 4 3 3 4 6 6 6 4 6 8 4 5 5 6 6 9 12 12 12 13 14 13 10 10 8 8 11 10 12 11 10 11 8 6 7
9 10 9 10 9 7 6 7 4 4 4 3 6 6 6 5 7 8 5 5 7 7 6 9 10 12 12 15 14 14 11 9 14 20 18 23 20 19 16 8 6 10 6
10 9 11 10 10 8 7 6 3 3 5 5 5 6 7 6 5 7 5 5 7 6 6 9 11 12 14 14 14 13 12 10 11 9 8 10 17 12 17 8 9 10 7
10 8 10 7 8 9 7 4 4 4 5 5 7 5 6 6 3 6 5 5 6 6 6 7 6 15 14 12 12 12 12 10 8 8 6 5 4 4 4 6 10 9 8
8 10 11 11 8 7 8 5 6 6 6 6 6 5 4 5 5 5 9 8 7 7 7 5 5 11 12 11 9 13 15 10 6 4 4 3 3 3 3 5 13 14 16
8 13 12 10 8 6 7 7 5 6 6 6 5 4 4 3 3 5 6 10 10 6 6 8 12 14 14 8 13 16 12 7 5 4 3 3 3 4 4 4 6 10 5
11 13 8 11 7 6 4 5 5 5 5 6 5 5 4 4 3 3 4 7 12 8 9 6 7 8 7 9 9 10 8 6 7 7 4 3 3 3 3 3 3 3 3
12 11 8 10 10 6 3 2 4 5 9 8 6 7 7 5 4 6 6 7 7 8 8 4 3 4 5 7 7 8 8 7 7 6 6 5 5 4 4 3 3 2 3
11 10 7 8 8 6 5 4 10 8 3 13 12 10 5 10 13 12 11 12 14 13 4 4 4 4 7 8 8 8 6 6 8 6 6 7 7 7 5 3 3 3 4
10 10 8 7 8 6 5 5 5 5 9 4 13 13 13 13 15 14 11 14 16 9 3 4 4 5 6 7 7 8 9 8 6 9 8 8 7 8 6 6 5 4 3
9 13 9 6 8 6 6 7 5 7 5 1 6 4 15 19 17 15 13 11 4 0 3 4 4 5 6 7 7 7 8 7 6 8 10 9 10 10 6 8 8 7 5
9 8 7 7 6 8 7 6 7 6 7 5 3 7 7 8 8 9 17 7 9 8 5 4 5 5 6 8 7 8 8 5 5 5 6 8 9 8 7 8 9 10 9
11 14 10 7 7 7 6 9 6 9 8 7 7 7 5 4 4 5 5 6 8 9 8 8 6 5 7 7 8 9 6 6 7 5 6 9 8 9 9 9 10 9 8
10 10 14 8 7 7 8 6 9 9 10 9 9 9 14 12 10 10 9 8 9 9 8 8 8 7 6 8 9 8 9 9 10 10 9 7 8 10 8 8 9 10 10
9 12 10 11 10 6 6 9 7 8 12 11 10 10 15 12 11 11 12 11 10 8 7 9 9 8 8 8 7 9 10 10 9 9 9 10 9 8 7 7 7 8 6
5 6 11 10 10 12 6 7 10 8 8 11 12 11 12 13 11 12 12 12 11 11 10 7 6 9 10 8 6 8 10 11 10 9 10 11 11 11 9 6 8 4 6
7 5 5 11 10 10 11 7 7 11 10 9 9 11 14 14 14 15 13 12 12 12 12 12 13 13 10 10 9 13 11 12 13 10 14 11 10 9 10 8 6 8 9
7 8 6 4 11 12 11 11 9 10 11 10 8 9 12 13 14 14 14 13 13 13 15 14 13 17 20 19 12 12 20 22 19 19 10 12 13 14 13 10 6 5 7
9 9 8 6 4 9 12 11 12 10 11 11 9 8 11 13 14 13 13 13 13 14 16 13 16 21 20 17 20 24 21 21 17 22 14 11 10 10 10 10 11 8 13
Wind_Direction
126 141 132 140 137 135 128 125 125 134 148 177 207 213 224 233 181 172 224 209 218 214 277 207 209 137 147 111 110 96 92 116 117 89 76 103 108 107 112 115 123 126 122
140 134 133 130 121 115 117 128 142 157 188 215 233 267 132 101 84 93 332 186 253 228 224 233 140 138 114 74 89 103 113 110 119 111 106 107 108 113 108 118 123 127 129
145 142 132 143 124 137 156 142 159 185 218 303 130 126 99 101 107 102 43 65 30 52 25 56 144 113 102 110 113 111 113 114 114 112 115 107 102 109 102 104 110 114 127
152 143 141 145 144 150 161 167 163 197 207 120 124 115 104 84 73 59 57 64 71 53 51 47 113 115 119 118 117 126 125 121 121 118 125 111 114 118 115 119 117 125 129
139 154 142 142 139 140 168 179 185 184 162 116 138 98 80 68 40 42 88 88 89 77 58 59 72 109 102 115 128 133 130 129 127 132 124 116 119 128 133 122 120 131 125
146 142 143 146 135 139 155 154 127 138 136 130 106 104 94 77 7 56 54 87 76 71 68 90 107 96 87 94 92 97 135 135 135 134 133 132 128 132 134 137 134 134 125
142 136 140 131 139 147 144 132 134 140 119 118 108 111 99 86 29 35 28 113 103 89 85 105 105 110 109 103 92 86 82 74 114 136 134 137 141 144 138 135 139 131 113
133 134 133 138 144 136 135 136 114 109 143 135 121 111 109 67 26 11 53 113 108 92 98 117 118 122 124 116 112 107 103 110 117 124 140 136 135 139 136 144 141 110 99
138 148 148 151 142 143 139 146 145 119 103 109 128 127 123 85 22 20 81 96 97 95 92 114 126 130 130 129 121 119 110 93 84 95 99 117 127 136 138 132 129 133 139
152 160 152 152 148 140 147 156 157 149 162 151 123 134 125 113 45 28 63 107 97 97 86 102 112 132 132 131 130 131 128 131 125 112 92 104 137 131 154 145 147 151 154
159 142 147 132 131 146 147 148 137 129 122 127 120 127 115 115 58 40 95 110 119 113 114 118 127 135 135 132 135 146 142 137 116 127 107 110 117 133 152 165 162 155 165
149 127 134 137 141 140 142 139 129 125 113 115 116 108 111 112 105 73 94 111 122 119 124 115 121 129 126 126 133 121 124 128 129 106 105 120 138 176 199 183 190 190 189
127 136 144 139 138 141 139 132 136 132 133 135 138 135 137 129 111 100 97 130 117 101 116 130 137 140 132 109 130 134 137 131 128 128 154 180 192 187 143 122 131 145 131
132 148 142 137 137 148 151 151 145 144 147 160 160 151 149 143 148 133 116 108 104 97 109 118 127 127 107 124 131 147 149 153 160 175 186 196 191 144 155 170 132 134 94
142 153 147 146 151 165 133 173 172 179 177 174 170 161 154 160 188 163 138 132 133 134 116 102 111 121 118 145 158 169 174 178 181 185 185 188 200 187 180 173 129 128 109
149 154 157 148 163 162 144 102 26 30 221 169 160 162 173 157 159 163 144 138 135 143 111 134 145 150 155 164 172 189 202 186 196 187 191 195 198 197 168 166 140 153 170
152 158 159 157 157 165 157 152 131 5 49 88 168 155 162 162 167 164 149 152 157 140 141 172 161 165 172 179 181 192 204 213 202 201 195 194 189 191 170 180 184 173 178
157 162 168 164 171 167 171 171 155 154 153 157 41 152 163 161 167 164 144 122 146 317 169 182 187 179 184 192 197 204 214 213 191 188 191 187 188 190 179 189 192 195 181
165 173 167 178 170 186 178 167 171 169 165 154 106 60 53 75 119 150 161 164 179 193 201 197 205 196 191 203 206 207 205 204 186 167 185 181 186 184 195 193 195 196 182
178 171 174 173 185 190 191 190 169 179 169 167 168 167 146 114 160 179 200 179 187 198 205 210 207 206 212 202 201 212 202 199 204 195 183 196 201 197 202 193 193 199 202
182 176 182 180 183 187 197 189 193 177 184 178 186 178 175 177 186 191 197 202 198 202 207 211 216 217 207 219 216 204 204 205 205 207 207 199 198 208 201 193 195 198 202
193 188 186 191 196 188 194 198 192 186 186 190 186 185 178 189 189 193 200 207 211 208 200 206 216 220 222 213 203 214 207 207 205 202 206 209 211 203 197 197 196 201 182
343 199 198 203 203 197 191 194 201 195 190 188 192 179 185 199 199 202 203 205 207 210 215 210 207 222 226 224 211 206 217 219 211 193 192 199 207 208 196 192 201 169 173
332 326 238 208 208 210 208 199 204 198 196 196 181 180 189 198 203 206 206 206 206 210 211 216 222 221 222 222 225 220 209 205 203 206 198 201 206 200 204 204 188 187 172
338 323 311 272 219 211 212 210 201 204 203 200 194 178 191 198 204 208 206 206 206 207 211 212 216 221 224 228 221 216 225 210 205 200 199 201 202 194 201 204 186 161 148
321 321 315 304 302 226 214 210 212 202 202 204 202 187 187 197 205 207 209 207 209 211 211 212 217 216 219 223 227 227 218 214 209 206 199 197 200 202 198 199 187 162 161